Location: Chavannes
(47.1090°N, 0.2226°W)
Time: 04:30:47
(UTC+00:00)

USA 215 - Pass Details

Date: 16 October 2021
Orbit: 1099 x 1109 km, 123.0° (Epoch: 20 November)

Event Time Altitude Azimuth Distance (km) Brightness Sun altitude
Exits shadow 19:42:15 29° 42° (NE) 1,887 4.2 -26.3°
Maximum altitude 19:44:30 38° 4° (N) 1,631 4.2 -26.6°
Drops below altitude 10° 19:50:25 10° 299° (WNW) 2,967 6.5 -27.6°
Sets 19:53:04 0° 292° (WNW) 3,926 7.4 -28.0°
